Location: High Point State Park
(41.2941°N, 74.6906°W)
Time: 07:14:30
(UTC-04:00)

Hubble Space Telescope - Visible Passes

Search period start: 27 June 2016 00:00
Search period end: 07 July 2016 00:00
Orbit: 539 x 543 km, 28.5° (Epoch: 26 June)

Date Brightness Start Highest point End Pass type
(mag) Time Alt. Az. Time Alt. Az. Time Alt. Az.
01 Jul 2.9 21:17:34 10° S 21:17:58 10° SSE 21:18:23 10° SSE visible
02 Jul 2.9 21:06:47 10° S 21:08:07 11° S 21:09:28 10° SSE visible
03 Jul 3.2 22:36:47 10° SW 22:36:56 10° SSW 22:36:56 10° SSW visible
04 Jul 3.1 22:27:12 10° SSW 22:27:45 11° SSW 22:27:45 11° SSW visible
05 Jul 3.0 22:17:47 10° SSW 22:18:30 11° SSW 22:18:30 11° SSW visible
